Location: Fort Collins
(40.5850°N, 105.0840°W)
Time: 19:49:15
(UTC-06:00)

Cosmos 2297 Rocket - Visible Passes

Search period start: 26 April 2015 00:00
Search period end: 06 May 2015 00:00
Orbit: 841 x 842 km, 71.0° (Epoch: 25 April)

Date Brightness Start Highest point End Pass type
(mag) Time Alt. Az. Time Alt. Az. Time Alt. Az.
26 Apr 3.9 00:25:59 10° N 00:29:57 25° NE 00:29:57 25° NE visible
26 Apr 3.9 02:09:32 10° NW 02:11:45 23° NW 02:11:45 23° NW visible
27 Apr 3.9 00:11:00 10° N 00:15:01 24° NE 00:15:01 24° NE visible
27 Apr 3.9 01:54:27 10° NW 01:56:49 25° NW 01:56:49 25° NW visible
27 Apr 3.9 23:56:00 10° N 00:00:07 23° NE 00:00:07 23° NE visible
28 Apr 3.8 01:39:22 10° NNW 01:41:55 26° NW 01:41:55 26° NW visible
28 Apr 3.9 23:41:01 10° N 23:45:15 23° NE 23:45:15 23° NE visible
29 Apr 3.7 01:24:19 10° NNW 01:27:03 29° NW 01:27:03 29° NW visible
29 Apr 3.9 23:26:02 10° N 23:30:14 22° NE 23:30:25 22° NE visible
30 Apr 3.6 01:09:14 10° NNW 01:12:13 31° NW 01:12:13 31° NW visible
30 Apr 3.9 23:11:03 10° N 23:15:09 21° NE 23:15:36 20° ENE visible
01 May 3.5 00:54:09 10° NNW 00:57:24 35° NW 00:57:24 35° NW visible
01 May 3.9 22:56:04 10° N 23:00:03 20° NE 23:00:48 19° ENE visible
02 May 3.3 00:39:05 10° NNW 00:42:36 39° NW 00:42:36 39° NW visible
02 May 4.0 22:41:06 10° N 22:44:57 19° NE 22:46:02 18° ENE visible
03 May 3.1 00:24:01 10° NNW 00:27:50 43° NW 00:27:50 43° NW visible
03 May 4.0 22:26:08 10° N 22:29:50 18° NE 22:31:18 17° ENE visible
04 May 2.9 00:08:57 10° NNW 00:13:06 49° NW 00:13:06 49° NW visible
04 May 4.0 22:11:11 10° N 22:14:44 17° NE 22:16:35 15° ENE visible
04 May 2.7 23:53:53 10° NNW 23:58:23 57° NW 23:58:23 57° NW visible
05 May 4.1 21:56:13 10° N 21:59:37 16° NE 22:01:53 14° ENE visible
05 May 2.4 23:38:49 10° NNW 23:43:42 66° NW 23:43:42 66° NW visible
